| time (UTC) | temp F | wind direction | speed knots | gust knots | rain 1hr in | rain 24hr in | rain mn in | humidity % | barometer mb |
| 20260504232546 | 55 | 11 | 5.2 | 12.2 | 0.00 | 0.00 | 0.00 | 50 | 1018.5 |
| 20260504231532 | 56 | 34 | 5.2 | 10.4 | 0.00 | 0.00 | 0.00 | 50 | 1018.8 |
| 20260504230522 | 57 | 20 | 4.3 | 7.8 | 0.00 | 0.00 | 0.00 | 49 | 1018.8 |
| 20260504225526 | 56 | 15 | 5.2 | 9.6 | 0.00 | 0.00 | 0.00 | 49 | 1018.4 |
| 20260504224532 | 57 | 352 | 5.2 | 9.6 | 0.00 | 0.00 | 0.00 | 48 | 1018.4 |
| 20260504223522 | 59 | 17 | 5.2 | 7.8 | 0.00 | 0.00 | 0.00 | 46 | 1018.7 |
| 20260504222750 | 60 | 302 | 3.5 | 6.1 | 0.00 | 0.00 | 0.00 | 44 | 1019.0 |
| 20260504221532 | 60 | 43 | 4.3 | 8.7 | 0.00 | 0.00 | 0.00 | 43 | 1019.1 |
| 20260504220522 | 61 | 59 | 5.2 | 9.6 | 0.00 | 0.00 | 0.00 | 42 | 1019.3 |
| 20260504215526 | 61 | 333 | 4.3 | 7.8 | 0.00 | 0.00 | 0.00 | 42 | 1019.1 |
| 20260504214532 | 61 | 7 | 4.3 | 7.8 | 0.00 | 0.00 | 0.00 | 40 | 1019.4 |
| 20260504213523 | 61 | 13 | 5.2 | 9.6 | 0.00 | 0.00 | 0.00 | 40 | 1019.5 |
| 20260504212545 | 60 | 18 | 2.6 | 10.4 | 0.00 | 0.00 | 0.00 | 40 | 1019.5 |
| 20260504211531 | 61 | 334 | 5.2 | 7.8 | 0.00 | 0.00 | 0.00 | 39 | 1019.8 |
| 20260504210537 | 60 | 320 | 3.5 | 6.1 | 0.00 | 0.00 | 0.00 | 41 | 1019.9 |
| 20260504205525 | 59 | 45 | 4.3 | 6.1 | 0.00 | 0.00 | 0.00 | 42 | 1020.2 |
| 20260504204530 | 58 | 278 | 2.6 | 5.2 | 0.00 | 0.00 | 0.00 | 44 | 1020.2 |
| 20260504203536 | 58 | 21 | 4.3 | 7.8 | 0.00 | 0.00 | 0.00 | 43 | 1020.1 |
| 20260504202730 | 59 | 66 | 5.2 | 8.7 | 0.00 | 0.00 | 0.00 | 42 | 1020.4 |
| 20260504201530 | 59 | 42 | 3.5 | 7.0 | 0.00 | 0.00 | 0.00 | 43 | 1020.4 |
| 20260504200518 | 59 | 352 | 5.2 | 7.8 | 0.00 | 0.00 | 0.00 | 43 | 1020.4 |
| 20260504195524 | 58 | 338 | 4.3 | 6.1 | 0.00 | 0.00 | 0.00 | 45 | 1020.2 |
| 20260504194530 | 58 | 44 | 3.5 | 7.0 | 0.00 | 0.00 | 0.00 | 45 | 1020.2 |
| 20260504193537 | 60 | 339 | 4.3 | 7.8 | 0.00 | 0.00 | 0.00 | 45 | 1020.2 |
| 20260504192523 | 57 | 348 | 4.3 | 10.4 | 0.00 | 0.00 | 0.00 | 47 | 1019.9 |
| 20260504191530 | 57 | 332 | 4.3 | 7.8 | 0.00 | 0.00 | 0.00 | 47 | 1020.2 |
| 20260504190537 | 57 | 55 | 3.5 | 7.0 | 0.00 | 0.00 | 0.00 | 47 | 1020.4 |
| 20260504185543 | 56 | 46 | 3.5 | 5.2 | 0.00 | 0.00 | 0.00 | 49 | 1020.2 |
| 20260504184529 | 56 | 356 | 4.3 | 7.0 | 0.00 | 0.00 | 0.00 | 49 | 1020.2 |
| 20260504183517 | 56 | 17 | 4.3 | 7.0 | 0.00 | 0.00 | 0.00 | 49 | 1020.2 |
| 20260504182522 | 56 | 36 | 4.3 | 7.8 | 0.00 | 0.00 | 0.00 | 48 | 1020.2 |
| 20260504181528 | 57 | 4 | 4.3 | 7.0 | 0.00 | 0.00 | 0.00 | 48 | 1020.2 |
| 20260504180517 | 57 | 338 | 3.5 | 6.1 | 0.00 | 0.00 | 0.00 | 48 | 1020.2 |
| 20260504175523 | 56 | 28 | 3.5 | 4.3 | 0.00 | 0.00 | 0.00 | 50 | 1020.3 |
| 20260504174548 | 57 | 43 | 4.3 | 7.0 | 0.00 | 0.00 | 0.00 | 48 | 1020.5 |
| 20260504173536 | 57 | 112 | 3.5 | 7.8 | 0.00 | 0.00 | 0.00 | 48 | 1020.6 |
| 20260504172522 | 57 | 68 | 3.5 | 7.0 | 0.00 | 0.00 | 0.00 | 48 | 1020.8 |
| 20260504171528 | 56 | 125 | 5.2 | 7.8 | 0.00 | 0.00 | 0.00 | 49 | 1020.4 |
| 20260504170515 | 57 | 108 | 3.5 | 5.2 | 0.00 | 0.00 | 0.00 | 47 | 1020.8 |
| 20260504150533 | 52 | 323 | 2.6 | 5.2 | 0.00 | 0.00 | 0.00 | 55 | 1021.8 |
| 20260504140532 | 47 | 246 | 3.5 | 4.3 | 0.00 | 0.00 | 0.00 | 63 | 1022.5 |
| 20260504130531 | 44 | 249 | 4.3 | 6.1 | 0.00 | 0.00 | 0.00 | 64 | 1022.1 |
| 20260504110530 | 45 | 329 | 3.5 | 7.0 | 0.00 | 0.00 | 0.00 | 57 | 1022.0 |
| 20260504100611 | 47 | 277 | 3.5 | 6.1 | 0.00 | 0.00 | 0.00 | 54 | 1021.7 |
| 20260504081603 | 54 | 273 | 6.1 | 12.2 | 0.00 | 0.00 | 0.00 | 49 | 1020.0 |
| 20260504080530 | 54 | 268 | 6.1 | 13.9 | 0.00 | 0.00 | 0.00 | 48 | 1019.4 |
| 20260504050546 | 55 | 272 | 3.5 | 6.1 | 0.00 | 0.00 | 0.00 | 47 | 1015.6 |
| 20260504045532 | 56 | 254 | 5.2 | 8.7 | 0.00 | 0.00 | 0.00 | 46 | 1015.9 |
| 20260504044537 | 57 | 250 | 7.0 | 11.3 | 0.00 | 0.00 | 0.00 | 45 | 1015.5 |
| 20260504043525 | 56 | 271 | 6.1 | 7.8 | 0.00 | 0.00 | 0.00 | 46 | 1015.7 |
| 20260504042531 | 57 | 270 | 5.2 | 7.8 | 0.00 | 0.00 | 0.00 | 45 | 1015.3 |
| 20260504041537 | 58 | 270 | 6.1 | 7.8 | 0.00 | 0.00 | 0.00 | 43 | 1015.3 |
| 20260504040524 | 58 | 267 | 6.1 | 7.0 | 0.00 | 0.00 | 0.00 | 41 | 1015.3 |
| 20260504035530 | 59 | 258 | 2.6 | 3.5 | 0.00 | 0.00 | 0.00 | 37 | 1015.1 |
| 20260504034518 | 60 | 267 | 4.3 | 5.2 | 0.00 | 0.00 | 0.00 | 36 | 1015.2 |
| 20260504033544 | 61 | 261 | 3.5 | 5.2 | 0.00 | 0.00 | 0.00 | 37 | 1015.1 |
| 20260504032530 | 61 | 258 | 5.2 | 6.1 | 0.00 | 0.00 | 0.00 | 37 | 1015.1 |
| 20260504031538 | 61 | 236 | 5.2 | 7.0 | 0.00 | 0.00 | 0.00 | 38 | 1015.0 |
| 20260504030543 | 62 | 238 | 5.2 | 7.0 | 0.00 | 0.00 | 0.00 | 37 | 1015.0 |
| 20260504025530 | 63 | 246 | 5.2 | 7.0 | 0.00 | 0.00 | 0.00 | 36 | 1014.7 |
| 20260504024518 | 64 | 240 | 4.3 | 5.2 | 0.00 | 0.00 | 0.00 | 36 | 1014.7 |
| 20260504023543 | 65 | 254 | 3.5 | 5.2 | 0.00 | 0.00 | 0.00 | 35 | 1014.8 |
| 20260504022528 | 67 | 250 | 4.3 | 4.3 | 0.00 | 0.00 | 0.00 | 34 | 1014.6 |
| 20260504021517 | 69 | 265 | 3.5 | 5.2 | 0.00 | 0.00 | 0.00 | 33 | 1014.6 |
| 20260504020523 | 71 | 270 | 5.2 | 7.8 | 0.00 | 0.00 | 0.00 | 31 | 1014.7 |
| 20260504015528 | 72 | 267 | 4.3 | 7.8 | 0.00 | 0.00 | 0.00 | 29 | 1014.9 |
| 20260504014516 | 73 | 270 | 7.0 | 7.8 | 0.00 | 0.00 | 0.00 | 29 | 1014.7 |
| 20260504013522 | 73 | 265 | 6.1 | 12.2 | 0.00 | 0.00 | 0.00 | 28 | 1014.7 |
| 20260504012529 | 74 | 270 | 8.7 | 12.2 | 0.00 | 0.00 | 0.00 | 27 | 1014.9 |
| 20260504011517 | 74 | 268 | 9.6 | 12.2 | 0.00 | 0.00 | 0.00 | 27 | 1015.0 |
| 20260504010539 | 75 | 268 | 8.7 | 13.0 | 0.00 | 0.00 | 0.00 | 27 | 1015.0 |
| 20260504005527 | 75 | 267 | 8.7 | 13.0 | 0.00 | 0.00 | 0.00 | 27 | 1014.7 |
| 20260504004515 | 75 | 269 | 9.6 | 13.9 | 0.00 | 0.00 | 0.00 | 27 | 1014.7 |
| 20260504003602 | 75 | 270 | 10.4 | 13.0 | 0.00 | 0.00 | 0.00 | 26 | 1015.0 |
| 20260504002526 | 76 | 267 | 11.3 | 14.8 | 0.00 | 0.00 | 0.00 | 25 | 1015.0 |
| 20260504001532 | 77 | 261 | 7.0 | 12.2 | 0.00 | 0.00 | 0.00 | 26 | 1015.1 |
| 20260504000522 | 77 | 269 | 9.6 | 14.8 | 0.00 | 0.00 | 0.00 | 24 | 1015.3 |
| 20260503235526 | 77 | 267 | 6.1 | 10.4 | 0.00 | 0.00 | 0.00 | 25 | 1015.4 |
| 20260503234551 | 78 | 263 | 7.0 | 9.6 | 0.00 | 0.00 | 0.00 | 24 | 1015.6 |
| 20260503233537 | 78 | 267 | 7.0 | 9.6 | 0.00 | 0.00 | 0.00 | 24 | 1015.6 |